Weather observations for the past three days for
Taylorville, Taylorville Municipal Airport
| Date | Time (cdt) | Wind (mph) | Vis. (mi.) | Weather | Sky Cond. | Temperature (ºF) | Relative Humidity | Wind Chill (°F) | Heat Index (°F) | Pressure | Precipitation (in) | ||||||
|---|---|---|---|---|---|---|---|---|---|---|---|---|---|---|---|---|---|
| Air | Dwpt | 6 hour | altimeter (in) | sea level (mb) | 1 hr | 3 hr | 6 hr | ||||||||||
| Max. | Min. | ||||||||||||||||
| 09 | 17:21 | W 9 | 10.00 | Fair | CLR | 77 | 48.2 | 36% | 78 | 29.76 | 0.0 | ||||||
| 09 | 16:40 | W 7 | 10.00 | Fair | CLR | 77 | 46.4 | 34% | 78 | 29.76 | 0.0 | ||||||
| 09 | 16:21 | W 13 G 17 | 10.00 | Fair | CLR | 77 | 46.4 | 34% | 78 | 29.76 | 0.0 | ||||||
| 09 | 16:00 | NW 9 G 17 | 10.00 | Partly Cloudy | SCT055 | 75.2 | 50 | 41% | 78 | 29.76 | 0.0 | ||||||
| 09 | 15:40 | W 9 | 10.00 | Partly Cloudy | SCT055 | 75.2 | 51.8 | 44% | 78 | 29.76 | 0.0 | ||||||
| 09 | 15:23 | SW 14 G 20 | 10.00 | Partly Cloudy | SCT055 | 75.2 | 53.6 | 47% | 78 | 29.77 | 0.0 | ||||||
| 09 | 15:00 | W 15 G 23 | 10.00 | Fair | CLR | 75.2 | 51.8 | 44% | 78 | 29.77 | 0.0 | ||||||
| 09 | 14:40 | W 9 G 20 | 10.00 | Fair | CLR | 73.4 | 53.6 | 50% | 29.78 | 0.0 | |||||||
| 09 | 14:21 | SW 13 G 17 | 10.00 | Fair | CLR | 73.4 | 55.4 | 53% | 29.77 | 0.0 | |||||||
| 09 | 14:00 | SW 12 G 17 | 10.00 | Partly Cloudy | SCT037 | 71.6 | 57.2 | 61% | 29.77 | 0.0 | |||||||
| 09 | 13:40 | W 13 G 20 | 10.00 | Fair | CLR | 71.6 | 57.2 | 61% | 29.78 | 0.0 | |||||||
| 09 | 13:23 | W 16 G 22 | 10.00 | Fair | CLR | 71.6 | 57.2 | 61% | 29.78 | 0.0 | |||||||
| 09 | 13:01 | W 14 G 23 | 10.00 | Fair | CLR | 69.8 | 57.2 | 64% | 29.78 | 0.0 | |||||||
| 09 | 12:40 | SW 15 G 22 | 10.00 | Fair | CLR | 69.8 | 57.2 | 64% | 29.79 | 0.0 | |||||||
| 09 | 12:22 | SW 16 G 24 | 10.00 | Partly Cloudy | SCT024 | 68 | 57.2 | 69% | 29.79 | 0.0 | |||||||
| 09 | 12:01 | SW 18 G 23 | 10.00 | Partly Cloudy | SCT024 | 66.2 | 57.2 | 73% | 29.79 | 0.0 | |||||||
| 09 | 11:40 | SW 15 G 20 | 10.00 | Partly Cloudy | SCT022 | 66.2 | 57.2 | 73% | 29.79 | 0.0 | |||||||
| 09 | 11:20 | SW 14 | 10.00 | Partly Cloudy | SCT022 | 64.4 | 57.2 | 78% | 29.79 | 0.0 | |||||||
| 09 | 11:00 | SW 14 G 20 | 10.00 | Fair | CLR | 64.4 | 57.2 | 78% | 29.78 | 0.0 | |||||||
| 09 | 10:40 | SW 10 | 10.00 | Fair | CLR | 64.4 | 57.2 | 78% | 29.78 | 0.0 | |||||||
| 09 | 10:20 | SW 13 G 18 | 10.00 | Partly Cloudy | SCT011 | 62.6 | 57.2 | 83% | 29.78 | 0.0 | |||||||
| 09 | 10:02 | SW 12 G 18 | 10.00 | Mostly Cloudy | BKN009 | 60.8 | 55.4 | 83% | 29.78 | 0.0 | |||||||
| 09 | 09:40 | SW 13 G 18 | 10.00 | Mostly Cloudy | BKN009 | 60.8 | 57.2 | 88% | 29.78 | 0.0 | |||||||
| 09 | 09:20 | SW 13 | 10.00 | Mostly Cloudy | BKN007 BKN011 | 59 | 55.4 | 88% | 29.78 | 0.0 | |||||||
| 09 | 09:02 | SW 12 | 10.00 | Overcast | OVC005 | 57.2 | 55.4 | 94% | 29.78 | 0.0 | |||||||
| 09 | 08:40 | SW 12 | 10.00 | Overcast | OVC005 | 55.4 | 55.4 | 100% | 29.78 | 0.0 | |||||||
| 09 | 08:21 | SW 10 | 5.00 | Overcast | OVC003 | 55.4 | 55.4 | 100% | 29.78 | 0.0 | |||||||
| 09 | 08:00 | SW 14 G 17 | 4.00 | Overcast | OVC003 | 53.6 | 53.6 | 100% | 29.78 | 0.0 | |||||||
| 09 | 07:40 | SW 10 | 4.00 | Overcast | OVC003 | 53.6 | 53.6 | 100% | 29.78 | 0.0 | |||||||
| 09 | 07:20 | SW 9 | 1.00 | Overcast | OVC003 | 53.6 | 53.6 | 100% | 29.78 | 0.0 | |||||||
| 09 | 06:59 | SW 9 | 0.50 | Overcast | OVC003 | 53.6 | 53.6 | 100% | 29.79 | 0.0 | |||||||
| 09 | 06:41 | SW 10 | 0.25 | Overcast | OVC003 | 53.6 | 51.8 | 94% | 29.78 | 0.0 | |||||||
| 09 | 06:20 | SW 9 | 0.25 | Overcast | OVC003 | 51.8 | 51.8 | 100% | 29.77 | 0.0 | |||||||
| 09 | 06:00 | SW 8 | 0.50 | Overcast | OVC003 | 51.8 | 51.8 | 100% | 29.76 | 0.0 | |||||||
| 09 | 05:41 | SW 8 | 0.25 | Overcast | OVC003 | 51.8 | 51.8 | 100% | 29.77 | 0.0 | |||||||
| 09 | 05:20 | SW 7 | 0.50 | Overcast | OVC003 | 51.8 | 51.8 | 100% | 29.76 | 0.0 | |||||||
| 09 | 05:02 | SW 8 | 0.50 | Overcast | OVC003 | 51.8 | 51.8 | 100% | 29.76 | 0.0 | |||||||
| 09 | 04:39 | SW 7 | 0.25 | Overcast | OVC003 | 51.8 | 51.8 | 100% | 29.76 | 0.0 | |||||||
| 09 | 04:21 | SW 5 | 1.00 | Overcast | OVC003 | 51.8 | 51.8 | 100% | 29.76 | 0.0 | |||||||
| 09 | 04:00 | SW 6 | 0.50 | Overcast | OVC003 | 51.8 | 51.8 | 100% | 29.76 | 0.0 | |||||||
| 09 | 03:40 | SW 3 | 3.00 | Overcast | OVC003 | 51.8 | 51.8 | 100% | 29.76 | 0.0 | |||||||
| 09 | 03:20 | S 5 | 7.00 | Partly Cloudy | SCT003 | 51.8 | 51.8 | 100% | 29.75 | 0.0 | |||||||
| 09 | 03:00 | S 5 | 7.00 | Partly Cloudy | SCT003 | 51.8 | 51.8 | 100% | 29.75 | 0.0 | |||||||
| 09 | 02:40 | S 5 | 7.00 | Partly Cloudy | SCT003 | 51.8 | 51.8 | 100% | 29.76 | 0.0 | |||||||
| 09 | 02:21 | SW 3 | 10.00 | Fair | CLR | 53.6 | 51.8 | 94% | 29.76 | 0.0 | |||||||
| 09 | 02:00 | S 3 | 10.00 | Fair | CLR | 53.6 | 51.8 | 94% | 29.76 | 0.0 | |||||||
| 09 | 01:40 | Calm | 10.00 | Fair | CLR | 53.6 | 53.6 | 100% | 29.76 | 0.0 | |||||||
| 09 | 01:20 | S 6 | 10.00 | Fair | CLR | 53.6 | 53.6 | 100% | 29.77 | 0.0 | |||||||
| 09 | 01:00 | S 7 | 10.00 | Fair | CLR | 55.4 | 53.6 | 94% | 29.77 | 0.0 | |||||||
| 09 | 00:40 | S 8 | 10.00 | Fair | CLR | 55.4 | 53.6 | 94% | 29.78 | 0.0 | |||||||
| 09 | 00:20 | S 8 | 10.00 | Fair | CLR | 55.4 | 53.6 | 94% | 29.78 | 0.0 | |||||||
| 09 | 00:00 | SW 8 | 10.00 | Fair | CLR | 55.4 | 53.6 | 94% | 29.79 | 0.0 | |||||||
| 08 | 23:40 | SW 6 | 10.00 | Fair | CLR | 55.4 | 53.6 | 94% | 29.79 | 0.0 | |||||||
| 08 | 23:20 | SW 7 | 10.00 | Partly Cloudy | SCT043 SCT060 SCT075 | 57.2 | 53.6 | 88% | 29.79 | 0.0 | |||||||
| 08 | 23:03 | SW 7 | 10.00 | Mostly Cloudy | SCT043 BKN060 BKN120 | 57.2 | 53.6 | 88% | 29.79 | 0.0 | |||||||
| 08 | 22:43 | SW 7 | 10.00 | Mostly Cloudy | BKN120 | 57.2 | 53.6 | 88% | 29.79 | 0.0 | |||||||
| 08 | 22:20 | W 8 | 10.00 | Partly Cloudy | SCT120 | 57.2 | 53.6 | 88% | 29.78 | 0.0 | |||||||
| 08 | 22:01 | W 7 | 10.00 | Partly Cloudy | SCT120 | 57.2 | 53.6 | 88% | 29.79 | 0.0 | |||||||
| 08 | 21:41 | W 6 | 10.00 | Partly Cloudy | SCT120 | 57.2 | 53.6 | 88% | 29.79 | 0.0 | |||||||
| 08 | 21:20 | W 5 | 10.00 | Partly Cloudy | SCT050 SCT080 SCT100 | 57.2 | 53.6 | 88% | 29.78 | 0.0 | |||||||
| 08 | 21:00 | SW 10 | 10.00 | Mostly Cloudy | SCT075 SCT080 BKN100 | 57.2 | 53.6 | 88% | 29.79 | 0.0 | |||||||
| 08 | 20:40 | SW 12 | 10.00 | Overcast | SCT065 OVC075 | 57.2 | 53.6 | 88% | 29.79 | 0.0 | |||||||
| 08 | 20:23 | SW 9 | 10.00 | Overcast | BKN065 OVC075 | 57.2 | 53.6 | 88% | 29.79 | 0.0 | |||||||
| 08 | 20:00 | SW 8 | 10.00 | Overcast | OVC065 | 57.2 | 53.6 | 88% | 29.78 | 0.0 | |||||||
| 08 | 19:40 | SW 3 | 10.00 | Overcast | OVC075 | 57.2 | 55.4 | 94% | 29.78 | 0.0 | 0.02 | ||||||
| 08 | 19:21 | Calm | 10.00 | Overcast | OVC075 | 57.2 | 55.4 | 94% | 29.78 | 0.0 | 0.02 | ||||||
| 08 | 19:00 | S 5 | 10.00 | Overcast | OVC075 | 57.2 | 53.6 | 88% | 29.8 | 0.0 | 0.01 | ||||||
| 08 | 18:40 | Calm | 10.00 | Overcast | OVC075 | 57.2 | 53.6 | 88% | 29.79 | 0.0 | 0.02 | ||||||
| 08 | 18:20 | Calm | 10.00 | Overcast | SCT075 OVC085 | 57.2 | 55.4 | 94% | 29.8 | 0.0 | 0.01 | ||||||
| 08 | 18:00 | Calm | 7.00 | Overcast | SCT055 OVC075 | 57.2 | 53.6 | 88% | 29.8 | 0.0 | |||||||
| 08 | 17:40 | SW 3 | 10.00 | Overcast | BKN055 BKN075 OVC090 | 57.2 | 55.4 | 94% | 29.82 | 0.0 | |||||||
| 08 | 17:20 | W 5 | 10.00 | Overcast | SCT065 SCT075 OVC090 | 57.2 | 55.4 | 94% | 29.81 | 0.0 | |||||||
| 08 | 17:02 | W 5 | 10.00 | Overcast | SCT065 BKN075 OVC085 | 57.2 | 53.6 | 88% | 29.81 | 0.0 | |||||||
| 08 | 16:40 | W 5 | 10.00 | Overcast | BKN065 OVC085 | 57.2 | 53.6 | 88% | 29.82 | 0.0 | 0.02 | ||||||
| 08 | 16:20 | W 5 | 10.00 | Overcast | SCT075 OVC085 | 57.2 | 53.6 | 88% | 29.83 | 0.0 | 0.01 | ||||||
| 08 | 15:40 | W 3 | 5.00 | Overcast | SCT065 OVC080 | 57.2 | 53.6 | 88% | 29.83 | 0.0 | 0.05 | ||||||
| 08 | 15:23 | W 8 | 7.00 | Overcast | SCT065 OVC090 | 60.8 | 53.6 | 77% | 29.84 | 0.0 | 0.01 | ||||||
| 08 | 15:00 | W 5 | 10.00 | Overcast | SCT070 OVC090 | 60.8 | 51.8 | 72% | 29.82 | 0.0 | |||||||
| 08 | 14:40 | W 9 | 10.00 | Overcast | SCT033 SCT070 OVC090 | 62.6 | 50 | 64% | 29.84 | 0.0 | |||||||
| 08 | 14:22 | W 8 | 10.00 | Overcast | SCT035 OVC090 | 62.6 | 50 | 64% | 29.83 | 0.0 | |||||||
| 08 | 14:01 | W 10 G 16 | 10.00 | Overcast | OVC090 | 64.4 | 48.2 | 56% | 29.83 | 0.0 | |||||||
| 08 | 13:40 | W 14 | 10.00 | Overcast | OVC090 | 64.4 | 48.2 | 56% | 29.83 | 0.0 | |||||||
| 08 | 13:23 | SW 12 | 10.00 | Overcast | OVC090 | 64.4 | 48.2 | 56% | 29.83 | 0.0 | |||||||
| 08 | 13:00 | W 15 G 21 | 10.00 | Overcast | BKN090 OVC110 | 64.4 | 48.2 | 56% | 29.84 | 0.0 | |||||||
| 08 | 12:40 | W 8 | 10.00 | Overcast | BKN080 OVC110 | 64.4 | 50 | 60% | 29.84 | 0.0 | |||||||
| 08 | 12:21 | W 12 G 18 | 10.00 | Overcast | SCT034 SCT060 OVC080 | 62.6 | 50 | 64% | 29.85 | 0.0 | |||||||
| 08 | 11:20 | SW 9 | 10.00 | Overcast | SCT075 OVC100 | 62.6 | 48.2 | 60% | 29.88 | 0.0 | |||||||
| 08 | 11:00 | SW 14 G 23 | 10.00 | Overcast | OVC100 | 64.4 | 48.2 | 56% | 29.88 | 0.0 | |||||||
| 08 | 10:41 | SW 15 G 25 | 10.00 | Mostly Cloudy | BKN110 | 64.4 | 48.2 | 56% | 29.87 | 0.0 | |||||||
| 08 | 10:20 | SW 20 G 24 | 10.00 | Partly Cloudy | SCT110 | 66.2 | 48.2 | 52% | 29.88 | 0.0 | |||||||
| 08 | 10:03 | SW 17 G 23 | 10.00 | Partly Cloudy | SCT110 | 64.4 | 48.2 | 56% | 29.88 | 0.0 | |||||||
| 08 | 09:41 | SW 16 G 23 | 10.00 | Fair | CLR | 64.4 | 48.2 | 56% | 29.88 | 0.0 | |||||||
| 08 | 09:21 | SW 16 G 21 | 10.00 | Fair | CLR | 62.6 | 48.2 | 60% | 29.89 | 0.0 | |||||||
| 08 | 09:00 | SW 15 G 25 | 10.00 | Fair | CLR | 60.8 | 46.4 | 59% | 29.89 | 0.0 | |||||||
| 08 | 08:40 | SW 12 | 10.00 | Fair | CLR | 59 | 46.4 | 63% | 29.89 | 0.0 | |||||||
| 08 | 08:20 | S 12 | 10.00 | Partly Cloudy | SCT110 | 57.2 | 46.4 | 67% | 29.9 | 0.0 | |||||||
| 08 | 08:00 | SW 12 | 10.00 | Partly Cloudy | SCT110 | 53.6 | 46.4 | 77% | 29.91 | 0.0 | |||||||
| 08 | 07:44 | SW 12 | 10.00 | Partly Cloudy | SCT095 SCT120 | 53.6 | 44.6 | 72% | 29.9 | 0.0 | |||||||
| 08 | 07:20 | S 13 | 10.00 | Mostly Cloudy | BKN095 | 51.8 | 44.6 | 77% | 29.89 | 0.0 | |||||||
| 08 | 07:00 | S 13 | 10.00 | Overcast | OVC095 | 51.8 | 44.6 | 77% | 29.89 | 0.0 | |||||||
| 08 | 06:41 | S 13 G 16 | 10.00 | Overcast | OVC095 | 50 | 42.8 | 76% | 46 | 29.89 | 0.0 | ||||||
| 08 | 06:21 | S 10 | 10.00 | Overcast | OVC095 | 48.2 | 44.6 | 87% | 44 | 29.89 | 0.0 | ||||||
| 08 | 06:00 | S 9 | 10.00 | Overcast | OVC095 | 48.2 | 42.8 | 82% | 45 | 29.89 | 0.0 | ||||||
| 08 | 05:42 | S 9 | 10.00 | Overcast | OVC095 | 48.2 | 42.8 | 82% | 45 | 29.88 | 0.0 | ||||||
| 08 | 05:21 | S 10 | 10.00 | Mostly Cloudy | BKN095 | 48.2 | 42.8 | 82% | 44 | 29.89 | 0.0 | ||||||
| 08 | 05:00 | S 10 | 10.00 | Fair | CLR | 48.2 | 42.8 | 82% | 44 | 29.89 | 0.0 | ||||||
| 08 | 04:40 | S 9 | 10.00 | Partly Cloudy | SCT090 | 48.2 | 42.8 | 82% | 45 | 29.89 | 0.0 | ||||||
| 08 | 04:20 | S 10 | 10.00 | Partly Cloudy | SCT090 | 48.2 | 42.8 | 82% | 44 | 29.88 | 0.0 | ||||||
| 08 | 04:00 | S 10 | 10.00 | Partly Cloudy | SCT110 | 48.2 | 42.8 | 82% | 44 | 29.89 | 0.0 | ||||||
| 08 | 03:40 | S 10 | 10.00 | Mostly Cloudy | BKN110 | 48.2 | 42.8 | 82% | 44 | 29.89 | 0.0 | ||||||
| 08 | 03:01 | S 10 | 10.00 | Partly Cloudy | SCT110 | 48.2 | 42.8 | 82% | 44 | 29.89 | 0.0 | ||||||
| 08 | 02:41 | S 9 | 10.00 | Partly Cloudy | SCT110 | 48.2 | 42.8 | 82% | 45 | 29.91 | 0.0 | ||||||
| 08 | 02:21 | S 9 | 10.00 | Partly Cloudy | SCT110 | 50 | 42.8 | 76% | 47 | 29.91 | 0.0 | ||||||
| 08 | 02:01 | S 9 | 10.00 | Mostly Cloudy | BKN110 | 50 | 42.8 | 76% | 47 | 29.92 | 0.0 | ||||||
| 08 | 01:40 | S 8 | 10.00 | Partly Cloudy | SCT110 | 50 | 42.8 | 76% | 47 | 29.92 | 0.0 | ||||||
| 08 | 01:20 | S 8 | 10.00 | Partly Cloudy | SCT110 | 50 | 42.8 | 76% | 47 | 29.93 | 0.0 | ||||||
| 08 | 01:00 | S 8 | 10.00 | Fair | CLR | 51.8 | 42.8 | 72% | 29.94 | 0.0 | |||||||
| 08 | 00:43 | S 8 | 10.00 | Fair | CLR | 51.8 | 42.8 | 72% | 29.94 | 0.0 | |||||||
| 08 | 00:21 | S 9 | 10.00 | Fair | CLR | 51.8 | 42.8 | 72% | 29.94 | 0.0 | |||||||
| 08 | 00:00 | S 10 | 10.00 | Fair | CLR | 51.8 | 42.8 | 72% | 29.93 | 0.0 | |||||||
| 07 | 23:40 | S 7 | 10.00 | Fair | CLR | 51.8 | 42.8 | 72% | 29.93 | 0.0 | |||||||
| 07 | 23:21 | S 7 | 10.00 | Fair | CLR | 51.8 | 42.8 | 72% | 29.93 | 0.0 | |||||||
| 07 | 23:00 | S 6 | 10.00 | Fair | CLR | 51.8 | 42.8 | 72% | 29.93 | 0.0 | |||||||
| 07 | 22:22 | S 6 | 10.00 | Fair | CLR | 51.8 | 42.8 | 72% | 29.93 | 0.0 | |||||||
| 07 | 21:40 | S 6 | 10.00 | Fair | CLR | 53.6 | 44.6 | 72% | 29.93 | 0.0 | |||||||
| 07 | 21:20 | S 7 | 10.00 | Fair | CLR | 53.6 | 44.6 | 72% | 29.92 | 0.0 | |||||||
| 07 | 21:00 | S 6 | 10.00 | Partly Cloudy | SCT120 | 55.4 | 44.6 | 67% | 29.92 | 0.0 | |||||||
| 07 | 20:40 | S 6 | 10.00 | Fair | CLR | 55.4 | 42.8 | 63% | 29.91 | 0.0 | |||||||
| 07 | 20:20 | S 6 | 10.00 | Partly Cloudy | SCT120 | 57.2 | 42.8 | 59% | 29.91 | 0.0 | |||||||
| 07 | 20:00 | SW 6 | 10.00 | Overcast | OVC120 | 60.8 | 42.8 | 52% | 29.9 | 0.0 | |||||||
| 07 | 19:40 | SW 8 | 10.00 | Overcast | OVC110 | 62.6 | 41 | 45% | 29.9 | 0.0 | |||||||
| 07 | 19:20 | SW 10 G 16 | 10.00 | Overcast | OVC110 | 62.6 | 39.2 | 42% | 29.9 | 0.0 | |||||||
| 07 | 19:02 | SW 10 | 10.00 | Mostly Cloudy | BKN110 | 62.6 | 39.2 | 42% | 29.9 | 0.0 | |||||||
| 07 | 18:40 | SW 14 | 10.00 | Partly Cloudy | SCT070 SCT120 | 64.4 | 39.2 | 40% | 29.89 | 0.0 | |||||||
| 07 | 18:20 | SW 14 G 20 | 10.00 | Fair | CLR | 64.4 | 39.2 | 40% | 29.89 | 0.0 | |||||||
| 07 | 18:00 | SW 15 G 21 | 10.00 | Fair | CLR | 64.4 | 39.2 | 40% | 29.9 | 0.0 | |||||||
| 07 | 17:40 | SW 16 G 24 | 10.00 | Fair | CLR | 64.4 | 37.4 | 37% | 29.9 | 0.0 | |||||||
| 07 | 17:21 | SW 18 G 24 | 10.00 | Partly Cloudy | SCT120 | 64.4 | 37.4 | 37% | 29.9 | 0.0 | |||||||
| 07 | 17:00 | SW 18 G 24 | 10.00 | Mostly Cloudy | SCT075 BKN120 | 66.2 | 37.4 | 35% | 29.91 | 0.0 | |||||||
| 07 | 16:40 | SW 16 G 24 | 10.00 | Mostly Cloudy | SCT075 SCT085 BKN110 | 66.2 | 37.4 | 35% | 29.91 | 0.0 | |||||||
| 07 | 16:04 | SW 20 G 23 | 10.00 | Partly Cloudy | SCT075 SCT080 | 64.4 | 37.4 | 37% | 29.92 | 0.0 | |||||||
| 07 | 15:40 | SW 17 G 23 | 10.00 | Partly Cloudy | SCT075 SCT085 | 64.4 | 39.2 | 40% | 29.93 | 0.0 | |||||||
| 07 | 15:20 | SW 18 G 29 | 10.00 | Partly Cloudy | SCT075 SCT085 | 64.4 | 37.4 | 37% | 29.93 | 0.0 | |||||||
| 07 | 15:02 | SW 21 G 25 | 10.00 | Partly Cloudy and Breezy | SCT065 SCT090 | 64.4 | 37.4 | 37% | 29.94 | 0.0 | |||||||
| 07 | 14:20 | W 13 G 23 | 10.00 | Partly Cloudy | SCT065 SCT080 SCT095 | 64.4 | 37.4 | 37% | 29.97 | 0.0 | |||||||
| 07 | 13:41 | SW 15 G 26 | 10.00 | Fair | CLR | 62.6 | 39.2 | 42% | 29.97 | 0.0 | |||||||
| 07 | 13:20 | SW 15 G 26 | 10.00 | Fair | CLR | 62.6 | 39.2 | 42% | 29.97 | 0.0 | |||||||
| 07 | 13:00 | W 16 G 24 | 10.00 | Partly Cloudy | SCT060 | 62.6 | 37.4 | 39% | 29.98 | 0.0 | |||||||
| 07 | 12:42 | SW 13 G 24 | 10.00 | Partly Cloudy | SCT060 | 62.6 | 37.4 | 39% | 29.99 | 0.0 | |||||||
| 07 | 12:20 | SW 12 G 23 | 10.00 | Fair | CLR | 60.8 | 37.4 | 42% | 30 | 0.0 | |||||||
| 07 | 11:40 | SW 13 | 10.00 | Fair | CLR | 60.8 | 37.4 | 42% | 30.01 | 0.0 | |||||||
| 07 | 11:20 | SW 14 G 22 | 10.00 | Fair | CLR | 59 | 37.4 | 45% | 30.02 | 0.0 | |||||||
| 07 | 11:00 | W 14 | 10.00 | Fair | CLR | 57.2 | 35.6 | 44% | 30.02 | 0.0 | |||||||
| 07 | 10:40 | SW 15 G 18 | 10.00 | Fair | CLR | 57.2 | 39.2 | 51% | 30.02 | 0.0 | |||||||
| 07 | 10:20 | SW 14 G 17 | 10.00 | Fair | CLR | 57.2 | 37.4 | 48% | 30.03 | 0.0 | |||||||
| 07 | 10:00 | W 13 | 10.00 | Fair | CLR | 55.4 | 37.4 | 51% | 30.04 | 0.0 | |||||||
| 07 | 09:40 | SW 13 | 10.00 | Fair | CLR | 55.4 | 37.4 | 51% | 30.04 | 0.0 | |||||||
| 07 | 09:21 | SW 12 | 10.00 | Fair | CLR | 55.4 | 37.4 | 51% | 30.04 | 0.0 | |||||||
| 07 | 09:02 | SW 10 | 10.00 | Fair | CLR | 53.6 | 37.4 | 54% | 30.04 | 0.0 | |||||||
| 07 | 08:40 | SW 8 | 10.00 | Fair | CLR | 51.8 | 39.2 | 62% | 30.04 | 0.0 | |||||||
| 07 | 08:21 | SW 7 | 10.00 | Fair | CLR | 50 | 39.2 | 67% | 48 | 30.04 | 0.0 | ||||||
| 07 | 07:40 | S 6 | 10.00 | Fair | CLR | 46.4 | 39.2 | 76% | 44 | 30.04 | 0.0 | ||||||
| 07 | 07:20 | SW 5 | 10.00 | Fair | CLR | 44.6 | 39.2 | 81% | 43 | 30.04 | 0.0 | ||||||
| 07 | 07:02 | Calm | 10.00 | Fair | CLR | 42.8 | 39.2 | 87% | 30.03 | 0.0 | |||||||
| 07 | 06:44 | Calm | 10.00 | Fair | CLR | 39.2 | 39.2 | 100% | 30.03 | 0.0 | |||||||
| 07 | 06:22 | Calm | 10.00 | Fair | CLR | 39.2 | 37.4 | 93% | 30.03 | 0.0 | |||||||
| 07 | 06:00 | Calm | 10.00 | Fair | CLR | 39.2 | 37.4 | 93% | 30.02 | 0.0 | |||||||
| 07 | 05:40 | Calm | 10.00 | Fair | CLR | 39.2 | 39.2 | 100% | 30.02 | 0.0 | |||||||
| 07 | 05:20 | Calm | 10.00 | Fair | CLR | 41 | 37.4 | 87% | 30.02 | 0.0 | |||||||
| 07 | 05:00 | Calm | 10.00 | Fair | CLR | 41 | 39.2 | 93% | 30.03 | 0.0 | |||||||
| 07 | 04:40 | Calm | 10.00 | Fair | CLR | 41 | 39.2 | 93% | 30.03 | 0.0 | |||||||
| 07 | 04:21 | Calm | 10.00 | Fair | CLR | 41 | 39.2 | 93% | 30.03 | 0.0 | |||||||
| 07 | 04:02 | Calm | 10.00 | Fair | CLR | 41 | 37.4 | 87% | 30.03 | 0.0 | |||||||
| 07 | 03:40 | Calm | 10.00 | Fair | CLR | 39.2 | 39.2 | 100% | 30.04 | 0.0 | |||||||
| 07 | 03:22 | Calm | 10.00 | Fair | CLR | 39.2 | 39.2 | 100% | 30.04 | 0.0 | |||||||
| 07 | 03:04 | Calm | 10.00 | Fair | CLR | 39.2 | 37.4 | 93% | 30.04 | 0.0 | |||||||
| 07 | 02:40 | Calm | 10.00 | Fair | CLR | 39.2 | 37.4 | 93% | 30.03 | 0.0 | |||||||
| 07 | 02:21 | Calm | 10.00 | Fair | CLR | 39.2 | 37.4 | 93% | 30.03 | 0.0 | |||||||
| 07 | 02:03 | Calm | 10.00 | Fair | CLR | 39.2 | 39.2 | 100% | 30.04 | 0.0 | |||||||
| 07 | 01:40 | Calm | 10.00 | Fair | CLR | 39.2 | 37.4 | 93% | 30.04 | 0.0 | |||||||
| 07 | 01:20 | Calm | 10.00 | Fair | CLR | 39.2 | 37.4 | 93% | 30.05 | 0.0 | |||||||
| 07 | 01:00 | Calm | 10.00 | Fair | CLR | 41 | 39.2 | 93% | 30.04 | 0.0 | |||||||
| 07 | 00:40 | Calm | 10.00 | Fair | CLR | 41 | 37.4 | 87% | 30.04 | 0.0 | |||||||
| 07 | 00:20 | Calm | 10.00 | Fair | CLR | 42.8 | 37.4 | 81% | 30.04 | 0.0 | |||||||
| 07 | 00:01 | Calm | 10.00 | Fair | CLR | 44.6 | 35.6 | 71% | 30.04 | 0.0 | |||||||
| 06 | 23:40 | Calm | 10.00 | Fair | CLR | 44.6 | 35.6 | 71% | 30.04 | 0.0 | |||||||
| 06 | 23:21 | N 3 | 10.00 | Fair | CLR | 44.6 | 37.4 | 76% | 30.05 | 0.0 | |||||||
| 06 | 22:59 | N 5 | 10.00 | Fair | CLR | 44.6 | 37.4 | 76% | 43 | 30.05 | 0.0 | ||||||
| 06 | 22:39 | N 6 | 10.00 | Partly Cloudy | SCT070 | 46.4 | 39.2 | 76% | 44 | 30.05 | 0.0 | ||||||
| 06 | 22:23 | Calm | 10.00 | Partly Cloudy | SCT070 | 46.4 | 39.2 | 76% | 30.05 | 0.0 | |||||||
| 06 | 22:00 | Calm | 10.00 | Fair | CLR | 46.4 | 39.2 | 76% | 30.04 | 0.0 | |||||||
| 06 | 21:41 | Calm | 10.00 | Fair | CLR | 48.2 | 39.2 | 71% | 30.04 | 0.0 | |||||||
| 06 | 21:19 | NW 5 | 10.00 | Fair | CLR | 48.2 | 39.2 | 71% | 47 | 30.03 | 0.0 | ||||||
| 06 | 21:02 | N 5 | 10.00 | Fair | CLR | 48.2 | 39.2 | 71% | 47 | 30.03 | 0.0 | ||||||
| 06 | 20:39 | NW 5 | 10.00 | Fair | CLR | 48.2 | 41 | 76% | 47 | 30.01 | 0.0 | ||||||
| 06 | 20:20 | NW 5 | 10.00 | Fair | CLR | 51.8 | 41 | 67% | 30.01 | 0.0 | |||||||
| 06 | 20:00 | N 5 | 10.00 | Partly Cloudy | SCT070 | 51.8 | 39.2 | 62% | 30.01 | 0.0 | |||||||
| 06 | 19:40 | NW 6 | 10.00 | Mostly Cloudy | BKN070 | 53.6 | 37.4 | 54% | 30 | 0.0 | |||||||
| 06 | 19:20 | NW 7 | 10.00 | Fair | CLR | 55.4 | 35.6 | 47% | 30 | 0.0 | |||||||
| 06 | 19:00 | NW 10 | 10.00 | Fair | CLR | 55.4 | 35.6 | 47% | 29.99 | 0.0 | |||||||
| 06 | 18:40 | NW 8 | 10.00 | Partly Cloudy | SCT075 | 57.2 | 37.4 | 48% | 30 | 0.0 | |||||||
| 06 | 18:20 | NW 14 G 17 | 10.00 | Overcast | OVC065 | 57.2 | 35.6 | 44% | 30 | 0.0 | |||||||
| 06 | 18:00 | NW 8 | 10.00 | Mostly Cloudy | BKN065 | 57.2 | 35.6 | 44% | 30 | 0.0 | |||||||
| 06 | 17:40 | NW 7 | 10.00 | Mostly Cloudy | BKN065 | 57.2 | 35.6 | 44% | 30 | 0.0 | |||||||
| Date | Time (cdt) | Wind (mph) | Vis. (mi.) | Weather | Sky Cond. | Air | Dwpt | Max. | Min. | Relative Humidity | Wind Chill (°F) | Heat Index (°F) | altimeter (in) | sea level (mb) | 1 hr | 3 hr | 6 hr |
| 6 hour | |||||||||||||||||
| Temperature (ºF) | Pressure | Precipitation (in) | |||||||||||||||